Time,TemperatureF,DewpointF,PressureIn,WindDirection,WindDirectionDegrees,WindSpeedMPH,WindSpeedGustMPH,Humidity,HourlyPrecipIn,Conditions,Clouds,dailyrainin,SoftwareType,DateUTC
2013-01-22 00:04:00,-7.0,-17.0,30.14,West,259,4.0,13.0,62,0.00,,,0.00,,2013-01-22 05:04:00,
2013-01-22 06:33:00,-8.0,-18.0,30.19,WSW,238,1.0,13.0,59,0.00,,,0.00,,2013-01-22 11:33:00,
2013-01-22 06:43:00,-8.0,-18.0,30.19,WSW,238,1.0,13.0,59,0.00,,,0.00,,2013-01-22 11:43:00,
2013-01-22 06:53:00,-8.0,-18.0,30.20,WSW,240,3.0,12.0,59,0.00,,,0.00,,2013-01-22 11:53:00,
2013-01-22 07:03:00,-8.0,-18.0,30.20,SW,232,3.0,11.0,59,0.00,,,0.00,,2013-01-22 12:03:00,
2013-01-22 07:12:00,-8.0,-18.0,30.20,SW,232,3.0,11.0,59,0.00,,,0.00,,2013-01-22 12:12:00,
2013-01-22 07:23:00,-8.0,-18.0,30.20,SSW,207,2.0,13.0,59,0.00,,,0.00,,2013-01-22 12:23:00,
2013-01-22 07:33:00,-8.0,-18.0,30.20,SSW,207,2.0,13.0,59,0.00,,,0.00,,2013-01-22 12:33:00,
2013-01-22 07:43:00,-8.0,-18.0,30.21,WSW,252,1.0,12.0,59,0.00,,,0.00,,2013-01-22 12:43:00,
2013-01-22 07:52:00,-8.0,-18.0,30.21,SW,234,1.0,11.0,59,0.00,,,0.00,,2013-01-22 12:52:00,
2013-01-22 08:04:00,-8.0,-18.0,30.21,SW,234,2.0,12.0,59,0.00,,,0.00,,2013-01-22 13:04:00,
2013-01-22 08:13:00,-8.0,-18.0,30.21,SW,234,2.0,12.0,59,0.00,,,0.00,,2013-01-22 13:13:00,
2013-01-22 08:23:00,-8.0,-18.0,30.21,WSW,250,1.0,10.0,59,0.00,,,0.00,,2013-01-22 13:23:00,
2013-01-22 08:33:00,-8.0,-18.0,30.22,SW,220,4.0,13.0,59,0.00,,,0.00,,2013-01-22 13:33:00,
2013-01-22 08:43:00,-8.0,-18.0,30.22,SW,220,4.0,13.0,59,0.00,,,0.00,,2013-01-22 13:43:00,
2013-01-22 08:53:00,-8.0,-18.0,30.22,West,272,4.0,16.0,59,0.00,,,0.00,,2013-01-22 13:53:00,
2013-01-22 09:03:00,-8.0,-18.0,30.22,WSW,246,3.0,11.0,59,0.00,,,0.00,,2013-01-22 14:03:00,
2013-01-22 09:13:00,-8.0,-18.0,30.22,WSW,246,3.0,11.0,59,0.00,,,0.00,,2013-01-22 14:13:00,
2013-01-22 09:23:00,-8.0,-18.0,30.22,WSW,246,3.0,11.0,59,0.00,,,0.00,,2013-01-22 14:23:00,
2013-01-22 09:34:00,-8.0,-18.0,30.22,SW,234,0.0,13.0,59,0.00,,,0.00,,2013-01-22 14:34:00,
2013-01-22 09:44:00,-8.0,-18.0,30.22,SW,234,0.0,13.0,59,0.00,,,0.00,,2013-01-22 14:44:00,
2013-01-22 09:54:00,-8.0,-18.0,30.22,West,267,4.0,9.0,59,0.00,,,0.00,,2013-01-22 14:54:00,
2013-01-22 10:03:00,-7.0,-18.0,30.23,WSW,257,1.0,11.0,58,0.00,,,0.00,,2013-01-22 15:03:00,
2013-01-22 10:13:00,-7.0,-18.0,30.23,WSW,257,1.0,11.0,58,0.00,,,0.00,,2013-01-22 15:13:00,
2013-01-22 10:23:00,-7.0,-18.0,30.23,WSW,257,1.0,11.0,58,0.00,,,0.00,,2013-01-22 15:23:00,
2013-01-22 10:34:00,-5.0,-17.0,30.23,WSW,257,4.0,11.0,56,0.00,,,0.00,,2013-01-22 15:34:00,
2013-01-22 10:44:00,-5.0,-17.0,30.23,WSW,257,4.0,11.0,56,0.00,,,0.00,,2013-01-22 15:44:00,
2013-01-22 10:53:00,-4.0,-16.0,30.23,West,278,9.0,21.0,55,0.00,,,0.00,,2013-01-22 15:53:00,
2013-01-22 11:03:00,-4.0,-16.0,30.23,West,259,5.0,14.0,54,0.00,,,0.00,,2013-01-22 16:03:00,
2013-01-22 11:13:00,-4.0,-16.0,30.23,West,259,5.0,14.0,54,0.00,,,0.00,,2013-01-22 16:13:00,
2013-01-22 11:23:00,-2.0,-15.0,30.24,WSW,251,4.0,11.0,54,0.00,,,0.00,,2013-01-22 16:23:00,
2013-01-22 11:33:00,-2.0,-15.0,30.24,West,263,4.0,15.0,53,0.00,,,0.00,,2013-01-22 16:33:00,
2013-01-22 11:43:00,-2.0,-15.0,30.24,West,263,4.0,15.0,53,0.00,,,0.00,,2013-01-22 16:43:00,
2013-01-22 11:53:00,0.0,-14.0,30.24,WNW,293,2.0,15.0,51,0.00,,,0.00,,2013-01-22 16:53:00,
2013-01-22 12:03:00,0.0,-15.0,30.24,SW,216,3.0,12.0,49,0.00,,,0.00,,2013-01-22 17:03:00,
2013-01-22 12:13:00,0.0,-15.0,30.24,SW,216,3.0,12.0,49,0.00,,,0.00,,2013-01-22 17:13:00,
2013-01-22 12:23:00,0.0,-15.0,30.25,WNW,301,3.0,14.0,49,0.00,,,0.00,,2013-01-22 17:23:00,
2013-01-22 12:34:00,0.0,-15.0,30.25,WSW,257,2.0,13.0,49,0.00,,,0.00,,2013-01-22 17:34:00,
2013-01-22 12:43:00,0.0,-15.0,30.25,WSW,257,2.0,13.0,49,0.00,,,0.00,,2013-01-22 17:43:00,
2013-01-22 12:53:00,0.0,-15.0,30.25,WNW,286,2.0,16.0,49,0.00,,,0.00,,2013-01-22 17:53:00,
2013-01-22 13:03:00,1.0,-15.0,30.25,WNW,300,6.0,16.0,46,0.00,,,0.00,,2013-01-22 18:03:00,
2013-01-22 13:13:00,1.0,-15.0,30.25,WNW,300,6.0,16.0,46,0.00,,,0.00,,2013-01-22 18:13:00,
2013-01-22 13:23:00,1.0,-15.0,30.25,WNW,294,5.0,17.0,45,0.00,,,0.00,,2013-01-22 18:23:00,
2013-01-22 13:33:00,1.0,-15.0,30.25,WSW,253,6.0,15.0,46,0.00,,,0.00,,2013-01-22 18:33:00,
2013-01-22 13:43:00,1.0,-15.0,30.25,WSW,253,6.0,15.0,46,0.00,,,0.00,,2013-01-22 18:43:00,
2013-01-22 13:53:00,2.0,-13.0,30.24,NW,306,3.0,16.0,48,0.00,,,0.00,,2013-01-22 18:53:00,
2013-01-22 14:03:00,1.0,-15.0,30.24,WNW,292,6.0,14.0,45,0.00,,,0.00,,2013-01-22 19:03:00,
2013-01-22 14:13:00,1.0,-15.0,30.24,WNW,292,6.0,14.0,45,0.00,,,0.00,,2013-01-22 19:13:00,
2013-01-22 14:23:00,1.0,-15.0,30.24,WSW,240,3.0,14.0,45,0.00,,,0.00,,2013-01-22 19:23:00,
2013-01-22 14:33:00,1.0,-15.0,30.24,West,271,5.0,14.0,46,0.00,,,0.00,,2013-01-22 19:33:00,
2013-01-22 14:43:00,1.0,-15.0,30.24,West,271,5.0,14.0,46,0.00,,,0.00,,2013-01-22 19:43:00,
2013-01-22 14:53:00,1.0,-14.0,30.24,South,175,6.0,17.0,49,0.00,,,0.00,,2013-01-22 19:53:00,
2013-01-22 15:03:00,1.0,-14.0,30.24,WSW,250,3.0,13.0,48,0.00,,,0.00,,2013-01-22 20:03:00,
2013-01-22 15:13:00,1.0,-14.0,30.24,WSW,250,3.0,13.0,48,0.00,,,0.00,,2013-01-22 20:13:00,
2013-01-22 15:23:00,2.0,-13.0,30.24,WSW,257,1.0,8.0,49,0.00,,,0.00,,2013-01-22 20:23:00,
2013-01-22 15:33:00,1.0,-14.0,30.25,West,275,2.0,14.0,49,0.00,,,0.00,,2013-01-22 20:33:00,
2013-01-22 15:43:00,1.0,-14.0,30.25,West,275,2.0,14.0,49,0.00,,,0.00,,2013-01-22 20:43:00,
2013-01-22 15:53:00,1.0,-13.0,30.25,SW,236,6.0,16.0,50,0.00,,,0.00,,2013-01-22 20:53:00,
2013-01-22 16:03:00,1.0,-12.0,30.25,West,279,1.0,15.0,53,0.00,,,0.00,,2013-01-22 21:03:00,
2013-01-22 16:13:00,1.0,-12.0,30.25,West,279,1.0,15.0,53,0.00,,,0.00,,2013-01-22 21:13:00,
2013-01-22 16:23:00,1.0,-13.0,30.25,WNW,300,2.0,10.0,51,0.00,,,0.00,,2013-01-22 21:23:00,
2013-01-22 16:33:00,1.0,-12.0,30.25,NW,306,0.0,7.0,53,0.00,,,0.00,,2013-01-22 21:33:00,
2013-01-22 16:43:00,1.0,-12.0,30.25,NW,306,0.0,7.0,53,0.00,,,0.00,,2013-01-22 21:43:00,
2013-01-22 16:53:00,1.0,-12.0,30.25,NNW,332,0.0,9.0,54,0.00,,,0.00,,2013-01-22 21:53:00,
2013-01-22 17:03:00,1.0,-11.0,30.25,West,280,1.0,6.0,56,0.00,,,0.00,,2013-01-22 22:03:00,
2013-01-22 17:13:00,1.0,-11.0,30.25,West,280,1.0,6.0,56,0.00,,,0.00,,2013-01-22 22:13:00,
2013-01-22 17:22:00,1.0,-11.0,30.25,West,278,0.0,6.0,56,0.00,,,0.00,,2013-01-22 22:22:00,
2013-01-22 17:32:00,1.0,-11.0,30.25,West,278,0.0,6.0,56,0.00,,,0.00,,2013-01-22 22:32:00,
2013-01-22 17:43:00,1.0,-11.0,30.25,West,278,0.0,6.0,56,0.00,,,0.00,,2013-01-22 22:43:00,
2013-01-22 17:53:00,1.0,-12.0,30.25,West,281,0.0,8.0,53,0.00,,,0.00,,2013-01-22 22:53:00,
2013-01-22 18:03:00,1.0,-11.0,30.25,WSW,248,0.0,8.0,55,0.00,,,0.00,,2013-01-22 23:03:00,
2013-01-22 18:12:00,1.0,-11.0,30.25,WSW,248,0.0,8.0,55,0.00,,,0.00,,2013-01-22 23:12:00,
2013-01-22 18:24:00,1.0,-11.0,30.25,WSW,251,1.0,6.0,55,0.00,,,0.00,,2013-01-22 23:24:00,
2013-01-22 18:33:00,1.0,-11.0,30.25,South,171,1.0,6.0,55,0.00,,,0.00,,2013-01-22 23:33:00,
2013-01-22 18:43:00,1.0,-11.0,30.25,South,171,1.0,6.0,55,0.00,,,0.00,,2013-01-22 23:43:00,
2013-01-22 18:52:00,1.0,-11.0,30.25,West,271,2.0,14.0,55,0.00,,,0.00,,2013-01-22 23:52:00,
2013-01-22 19:03:00,0.0,-12.0,30.25,WSW,247,0.0,6.0,55,0.00,,,0.00,,2013-01-23 00:03:00,
2013-01-22 19:12:00,0.0,-12.0,30.25,WSW,247,0.0,6.0,55,0.00,,,0.00,,2013-01-23 00:12:00,
2013-01-22 19:22:00,0.0,-12.0,30.26,SSW,204,0.0,4.0,56,0.00,,,0.00,,2013-01-23 00:22:00,
2013-01-22 19:33:00,0.0,-12.0,30.26,SSW,213,0.0,3.0,56,0.00,,,0.00,,2013-01-23 00:33:00,
2013-01-22 19:43:00,0.0,-12.0,30.26,SSW,213,0.0,3.0,56,0.00,,,0.00,,2013-01-23 00:43:00,
2013-01-22 19:52:00,0.0,-12.0,30.25,SW,219,0.0,3.0,57,0.00,,,0.00,,2013-01-23 00:52:00,
2013-01-22 20:03:00,0.0,-12.0,30.25,WSW,254,1.0,8.0,57,0.00,,,0.00,,2013-01-23 01:03:00,
2013-01-22 20:13:00,0.0,-12.0,30.25,WSW,254,1.0,8.0,57,0.00,,,0.00,,2013-01-23 01:13:00,
2013-01-22 20:23:00,0.0,-12.0,30.24,WSW,238,1.0,10.0,57,0.00,,,0.00,,2013-01-23 01:23:00,
2013-01-22 20:33:00,0.0,-11.0,30.24,SW,231,0.0,3.0,58,0.00,,,0.00,,2013-01-23 01:33:00,
2013-01-22 20:43:00,0.0,-11.0,30.24,SW,231,0.0,3.0,58,0.00,,,0.00,,2013-01-23 01:43:00,
2013-01-22 20:52:00,0.0,-11.0,30.23,ESE,119,0.0,5.0,58,0.00,,,0.00,,2013-01-23 01:52:00,
2013-01-22 21:03:00,0.0,-11.0,30.22,WSW,241,0.0,8.0,59,0.00,,,0.00,,2013-01-23 02:03:00,
2013-01-22 21:12:00,0.0,-11.0,30.22,WSW,241,0.0,8.0,59,0.00,,,0.00,,2013-01-23 02:12:00,
2013-01-22 21:23:00,0.0,-11.0,30.22,West,260,1.0,8.0,59,0.00,,,0.00,,2013-01-23 02:23:00,
2013-01-22 21:33:00,0.0,-11.0,30.21,WSW,237,0.0,14.0,58,0.00,,,0.00,,2013-01-23 02:33:00,
2013-01-22 21:42:00,0.0,-11.0,30.21,WSW,237,0.0,14.0,58,0.00,,,0.00,,2013-01-23 02:42:00,
2013-01-22 21:53:00,0.0,-11.0,30.21,WSW,258,1.0,11.0,58,0.00,,,0.00,,2013-01-23 02:53:00,
2013-01-22 22:03:00,0.0,-11.0,30.21,WSW,258,1.0,11.0,58,0.00,,,0.00,,2013-01-23 03:03:00,
2013-01-22 22:12:00,0.0,-11.0,30.21,WSW,258,1.0,11.0,58,0.00,,,0.00,,2013-01-23 03:12:00,
2013-01-22 22:23:00,-1.0,-13.0,30.20,West,269,3.0,14.0,56,0.00,,,0.00,,2013-01-23 03:23:00,
2013-01-22 22:33:00,-1.0,-13.0,30.19,West,277,5.0,13.0,55,0.00,,,0.00,,2013-01-23 03:33:00,
2013-01-22 22:42:00,-1.0,-13.0,30.19,West,277,5.0,13.0,55,0.00,,,0.00,,2013-01-23 03:42:00,
2013-01-22 22:53:00,-1.0,-14.0,30.19,ESE,110,1.0,21.0,54,0.00,,,0.00,,2013-01-23 03:53:00,
2013-01-22 23:03:00,-1.0,-14.0,30.18,WSW,252,3.0,14.0,54,0.00,,,0.00,,2013-01-23 04:03:00,
2013-01-22 23:12:00,-1.0,-14.0,30.18,WSW,252,3.0,14.0,54,0.00,,,0.00,,2013-01-23 04:12:00,
2013-01-22 23:22:00,-1.0,-14.0,30.18,WSW,257,1.0,17.0,54,0.00,,,0.00,,2013-01-23 04:22:00,
2013-01-22 23:33:00,-1.0,-14.0,30.19,South,175,1.0,9.0,54,0.00,,,0.00,,2013-01-23 04:33:00,
2013-01-22 23:43:00,-1.0,-14.0,30.19,South,175,1.0,9.0,54,0.00,,,0.00,,2013-01-23 04:43:00,
2013-01-22 23:52:00,-1.0,-14.0,30.19,WSW,250,6.0,20.0,54,0.00,,,0.00,,2013-01-23 04:52:00,